User: anonymous   Login
Location: Unspecified
(0.0000°N, 0.0000°E)
Time: 18:24:05
(UTC+00:00)
Language:

STARLINK-32792 - Orbit

View from above orbital plane
View from above orbital plane
View from above satellite
View from above satellite

Ground track
Ground track

The orbit is defined by the following mean orbital elements,

1 62504U          26145.50002483 +.00000000 +00000-0 +72146-3 0 00003
2 62504  43.0017 214.7558 0001690 271.0790  88.9868 15.27587202    04
Epoch (UTC): 25 May 2026 12:00:02
Eccentricity: 0.0001690
inclination: 43.0017°
perigee height: 482 km
apogee height: 484 km
right ascension of ascending node: 214.7558°
argument of perigee: 271.0790°
revolutions per day: 15.27587202
mean anomaly at epoch: 88.9868°

The dashed part of the orbit path shows where the satellite is in the earth's shadow,  

DLR